Flag for U.S.A. Weather past 2 weeks in Pensacola, Florida, U.S.A.

Now
77 °F

Overcast.


Feels Like: 79 °F
Forecast: 62 / 83 °F
Wind: 10 mph from Northeast

Location: Pensacola Regional Airport

Current Time: Sep 22, 2014 at 7:55:39 PM

Latest Report: Sep 22, 2014 at 6:53 PM


Visibility: 10 mi

Pressure: 30.00 "Hg

Humidity: 69%

Dew point: 66 °F

Location of PensacolaLocation

Historic Weather in Pensacola — Graph

°F

Pensacola temperature yesterday

Maximum temperature yesterday: 84 °F (at 1:53 PM)
Minimum temperature yesterday: 69 °F (at 6:53 AM)
Average temperature yesterday: 75 °F

Past Weeks' High & Low Weather Summary

 TemperatureHumidityPressure
High90 °F (Sep 13, 1:53 PM)100% (Sep 7, 10:53 PM)30.12 "Hg (Sep 7, 10:53 PM)
Low68 °F (Sep 22, 1:53 AM)45% (Sep 22, 1:53 PM)29.88 "Hg (Sep 17, 5:53 PM)
Average78 °F84%30.00 "Hg
* Reported Sep 7 6:53 PM — Sep 22 6:53 PM, Pensacola, Weather by CustomWeather, © 2014

Note: Actual official high and low records may vary slightly from our data, if they occured in-between our weather recording intervals... More about our weather records

Advertising

Pensacola weather history for previous 24 hours

 ConditionsComfort  
Time TempWeatherWind HumidityBarometerVisibility
6:53 PM
Sep 22
77 °FOvercast.10 mph69%30.00 "Hg10 mi
5:53 PM78 °FOvercast.13 mph71%29.98 "Hg10 mi
4:53 PM80 °FPartly sunny.13 mph69%29.97 "Hg10 mi
3:53 PM84 °FPassing clouds.16 mph65%29.96 "Hg10 mi
2:53 PM83 °FScattered clouds.9 mph65%29.96 "Hg10 mi
1:53 PM89 °FPassing clouds.9 mph45%29.96 "Hg10 mi
12:53 PM87 °FPartly sunny.7 mph48%29.99 "Hg10 mi
11:53 AM86 °FSunny.7 mph49%30.01 "Hg10 mi
10:53 AM84 °FSunny.9 mph59%30.02 "Hg10 mi
9:53 AM81 °FSunny.10 mph67%30.04 "Hg10 mi
8:53 AM78 °FSunny.10 mph76%30.04 "Hg10 mi
7:53 AM73 °FSunny.6 mph90%30.03 "Hg10 mi
6:53 AM69 °FSunny.5 mph90%30.02 "Hg10 mi
5:53 AM68 °FClear.5 mph93%30.01 "Hg10 mi
4:53 AM68 °FClear.5 mph96%30.00 "Hg10 mi
3:53 AM68 °FClear.6 mph93%29.99 "Hg10 mi
2:53 AM68 °FClear.3 mph96%29.98 "Hg10 mi
1:53 AM68 °FClear.No wind96%29.99 "Hg10 mi
12:53 AM69 °FClear.3 mph93%30.00 "Hg10 mi
11:53 PM
Sep 21
70 °FClear.3 mph93%30.00 "Hg10 mi
10:53 PM71 °FClear.3 mph90%30.01 "Hg10 mi
9:53 PM71 °FClear.No wind90%30.02 "Hg10 mi
8:53 PM73 °FClear.No wind84%30.01 "Hg10 mi
7:53 PM75 °FClear.3 mph76%30.00 "Hg10 mi
Weather by CustomWeather, © 2014

See weather overviewHow to use our weather pages